Location: Unspecified
(0.0000°N, 0.0000°E)
Time: 22:48:35
(UTC+00:00)

S-56A Canister/Altair - Visible Passes

Search period start: 20 October 2014 00:00
Search period end: 30 October 2014 00:00
Orbit: 633 x 2503 km, 38.9° (Epoch: 16 October)

Date Brightness Start Highest point End Pass type
(mag) Time Alt. Az. Time Alt. Az. Time Alt. Az.
20 Oct 9.8 03:40:09 13° NNE 03:41:04 13° NNE 03:43:24 10° ENE visible
20 Oct 10.7 18:17:13 10° WSW 18:31:09 51° NW 18:44:59 10° NNE visible
20 Oct 11.4 20:31:34 10° WNW 20:39:11 16° NW 20:45:51 11° N visible
21 Oct 10.2 03:10:10 10° NE 03:10:10 10° NE 03:10:25 10° NE visible
21 Oct 7.2 05:08:12 10° NW 05:13:10 77° SW 05:17:34 10° SE visible
21 Oct 10.6 17:44:09 10° WSW 17:57:57 58° NW 18:12:22 10° NE visible
21 Oct 11.4 19:56:43 10° WNW 20:05:57 19° NW 20:14:36 10° N visible
22 Oct 7.3 04:37:41 21° NW 04:41:09 81° NE 04:45:35 10° SE visible
22 Oct 11.4 19:22:19 10° W 19:32:42 22° NW 19:42:38 10° N visible
23 Oct 7.6 04:07:41 44° NNW 04:09:06 62° NE 04:13:34 10° ESE visible
23 Oct 11.4 18:48:16 10° W 18:59:26 25° NW 19:10:27 10° NNE visible
24 Oct 8.3 03:37:39 46° ENE 03:37:39 46° ENE 03:41:31 10° ESE visible
24 Oct 11.3 18:14:31 10° W 18:26:10 29° NW 18:38:06 10° NNE visible
25 Oct 9.6 03:07:34 23° E 03:07:34 23° E 03:09:26 10° ESE visible
25 Oct 8.9 05:05:04 11° W 05:08:26 19° SW 05:11:42 10° S visible
25 Oct 11.2 17:41:02 10° W 17:52:54 33° NW 18:05:35 10° NNE visible
26 Oct 8.5 04:34:57 23° WSW 04:36:23 26° SW 04:40:14 10° SSE visible
26 Oct 11.6 19:25:27 10° NW 19:29:17 11° NNW 19:33:03 10° N visible
27 Oct 8.3 04:04:47 35° SW 04:04:47 35° SW 04:08:40 10° SSE visible
27 Oct 11.6 18:49:45 10° NW 18:55:49 13° NNW 19:01:52 10° N visible
28 Oct 8.9 03:34:34 29° SSE 03:34:34 29° SSE 03:37:01 10° SSE visible
28 Oct 11.5 18:14:57 10° WNW 18:22:22 15° NNW 18:29:57 10° N visible
29 Oct 9.9 03:04:18 17° SE 03:04:18 17° SE 03:05:17 10° SE visible
